Simultaneous Nadir Overpasses (SNOs) Predictions

Prediction of SNOs between NOAA-19 and METOP-C Satellite Orbit:

Table of predicted SNOs for the next 14.0 days since TLE Epoch: 12/12/2020
Index Date (NOAA-19) Time (NOAA-19) Lat,Lon (NOAA-19) SZA (NOAA-19 ) Date (METOP-C) Time (METOP-C) Lat,Lon (METOP-C) SZA (METOP-C ) Distance(km) Time Diff (sec)
1 12/21/2020 14:58:16 80.30, -18.70 104.63 12/21/2020 14:59:19 80.30, -18.76 104.65 1.27 63
2 12/21/2020 15:49:17 -80.30, 148.42 75.38 12/21/2020 15:50:00 -80.28, 148.37 75.39 2.58 43
3 12/21/2020 16:40:17 80.31, -44.37 104.63 12/21/2020 16:40:41 80.29, -44.22 104.63 3.35 24
4 12/21/2020 17:31:17 -80.30, 123.07 75.38 12/21/2020 17:31:21 -80.30, 123.22 75.36 2.90 4
5 12/21/2020 18:22:17 80.30, -69.72 104.63 12/21/2020 18:22:03 80.28, -69.69 104.61 2.09 14
6 12/21/2020 19:13:17 -80.29, 97.72 75.37 12/21/2020 19:12:43 -80.29, 97.76 75.38 0.80 34
7 12/21/2020 20:04:17 80.29, -95.06 104.63 12/21/2020 20:03:25 80.27, -95.15 104.59 2.73 52



Historial Predications of SNOs between NOAA-19 and METOP-C
